KE0YTD Weather Reports


time (UTC)temp
C
wind
direction
speed
KPH
gust
KPH
rain 1hr
cm
rain 24hr
cm
rain mn
cm
humidity
%
barometer
mb
20260507181600 15 188 11.3 24.1 0.00 0.86 0.00 39 1016.3
20260507180051 15 213 11.3 20.9 0.00 0.86 0.00 42 1016.3
20260507174552 15 178 12.9 22.5 0.00 1.02 0.00 41 1016.5
20260507173053 13 198 9.7 20.9 0.00 1.02 0.00 43 1016.6
20260507171542 13 186 11.3 19.3 0.00 1.02 0.00 46 1016.7
20260507170053 12 173 9.7 19.3 0.00 1.02 0.00 49 1016.9
20260507164541 11 219 12.9 20.9 0.00 1.09 0.00 48 1017.0
20260507163057 11 206 14.5 24.1 0.00 1.09 0.00 47 1017.1
20260507161553 11 184 12.9 22.5 0.00 1.09 0.00 49 1017.2
20260507160044 10 211 12.9 24.1 0.00 1.09 0.00 48 1017.3
20260507154547 10 219 9.7 20.9 0.00 1.12 0.00 50 1017.3
20260507153054 8 199 12.9 27.4 0.00 1.12 0.00 50 1017.4
20260507151549 8 209 14.5 25.7 0.00 1.12 0.00 49 1017.4
20260507150047 7 211 12.9 19.3 0.00 1.12 0.00 49 1017.4
20260507144552 7 211 12.9 22.5 0.00 1.12 0.00 50 1017.3
20260507143053 6 217 12.9 20.9 0.00 1.12 0.00 49 1017.2
20260507141552 6 207 14.5 24.1 0.00 1.12 0.00 51 1017.2
20260507140053 6 188 14.5 22.5 0.00 1.12 0.00 51 1017.3
20260507134553 5 203 14.5 29.0 0.00 1.12 0.00 51 1017.3
20260507133051 5 205 14.5 22.5 0.00 1.12 0.00 51 1017.2
20260507131557 5 211 14.5 25.7 0.00 1.12 0.00 50 1017.1
20260507130107 4 178 14.5 24.1 0.00 1.12 0.00 49 1017.1
20260507124550 3 180 16.1 22.5 0.00 1.12 0.00 51 1017.0
20260507123042 3 175 12.9 24.1 0.00 1.12 0.00 50 1016.6
20260507121558 3 183 12.9 22.5 0.00 1.12 0.00 53 1016.6
20260507120100 2 183 12.9 22.5 0.00 1.12 0.00 53 1016.4
20260507114604 3 186 12.9 24.1 0.00 1.12 0.00 51 1016.4
20260507113052 3 185 12.9 22.5 0.00 1.12 0.00 52 1016.4
20260507111551 3 165 11.3 19.3 0.00 1.12 0.00 52 1016.3
20260507110052 3 177 11.3 19.3 0.00 1.12 0.00 50 1016.4
20260507104552 3 186 12.9 24.1 0.00 1.12 0.00 52 1016.4
20260507103046 3 164 12.9 24.1 0.00 1.12 0.00 52 1016.3
20260507101603 3 172 12.9 27.4 0.00 1.12 0.00 51 1016.4
20260507100053 2 171 12.9 27.4 0.00 1.12 0.00 54 1016.5
20260507094553 2 181 12.9 24.1 0.00 1.12 0.00 55 1016.7
20260507093055 2 188 12.9 22.5 0.00 1.12 0.00 56 1016.8
20260507091552 3 168 11.3 24.1 0.00 1.12 0.00 55 1016.6
20260507090052 2 173 12.9 24.1 0.00 1.12 0.00 56 1016.6
20260507084546 2 169 16.1 24.1 0.00 1.12 0.00 57 1016.8
20260507083052 2 173 12.9 20.9 0.00 1.12 0.00 60 1016.8
20260507081548 2 190 11.3 20.9 0.00 1.12 0.00 62 1016.9
20260507080050 2 171 11.3 22.5 0.00 1.12 0.00 64 1017.1
20260507074601 2 167 12.9 22.5 0.00 1.12 0.00 66 1017.4
20260507073049 1 192 11.3 22.5 0.00 1.12 0.00 69 1017.5
20260507071547 1 179 12.9 19.3 0.00 1.12 0.00 71 1017.6
20260507070048 1 175 11.3 22.5 0.00 1.12 0.00 73 1017.5
20260507064545 1 178 9.7 14.5 0.00 1.12 0.00 75 1017.6
20260507063045 1 192 9.7 16.1 0.00 1.12 0.00 77 1017.7
20260507061544 1 187 6.4 12.9 0.00 1.12 0.00 78 1017.6
20260507060043 1 182 8.0 16.1 0.00 1.12 0.00 79 1017.8
20260507054621 0 181 8.0 14.5 0.00 1.12 1.12 80 1017.8
20260507053054 0 203 8.0 11.3 0.00 1.12 1.12 80 1017.9
20260507051546 1 198 4.8 14.5 0.00 1.12 1.12 80 1017.7
20260507050056 1 156 6.4 14.5 0.00 1.12 1.12 79 1017.7
20260507044550 1 187 6.4 14.5 0.00 1.14 1.12 80 1017.7
20260507043048 1 169 6.4 16.1 0.00 1.14 1.12 81 1017.9
20260507041551 0 180 4.8 17.7 0.00 1.14 1.12 83 1017.9
20260507040046 0 138 6.4 14.5 0.00 1.14 1.12 84 1017.8
20260507034558 0 138 11.3 19.3 0.00 1.14 1.12 84 1017.9
20260507033054 0 133 8.0 14.5 0.00 1.14 1.12 85 1017.7
20260507031602 0 133 8.0 12.9 0.00 1.14 1.12 86 1017.8
20260507030053 0 122 6.4 11.3 0.00 1.14 1.12 85 1017.6
20260507024555 0 132 4.8 9.7 0.00 1.14 1.12 84 1017.5
20260507023102 0 135 6.4 11.3 0.00 1.14 1.12 83 1017.6
20260507021551 0 126 6.4 11.3 0.00 1.14 1.12 83 1017.4
20260507020050 0 121 4.8 6.4 0.00 1.14 1.12 84 1017.5
20260507014602 1 111 3.2 6.4 0.00 1.14 1.12 81 1017.5
20260507013053 1 125 4.8 9.7 0.00 1.14 1.12 79 1017.6
20260507011551 1 121 6.4 12.9 0.00 1.14 1.12 78 1017.8
20260507010052 1 111 8.0 11.3 0.00 1.14 1.12 78 1017.8
20260507004549 1 126 8.0 12.9 0.00 1.14 1.12 78 1017.9
20260507003051 1 144 6.4 11.3 0.00 1.14 1.12 77 1017.8
20260507001545 1 116 6.4 11.3 0.00 1.14 1.12 77 1017.8
20260507000045 1 119 6.4 12.9 0.00 1.14 1.12 78 1017.9
20260506234554 1 95 8.0 14.5 0.00 1.14 1.12 79 1017.8
20260506233108 1 142 4.8 11.3 0.00 1.14 1.12 78 1018.1
20260506231551 1 122 11.3 16.1 0.00 1.14 1.12 78 1018.1
20260506230051 1 131 6.4 14.5 0.00 1.14 1.12 78 1018.0
20260506224549 1 165 6.4 11.3 0.00 1.27 1.12 77 1018.3
20260506223043 1 135 3.2 9.7 0.00 1.27 1.12 78 1018.5
20260506221543 0 153 6.4 12.9 0.00 1.27 1.12 80 1018.5
20260506220052 0 128 6.4 11.3 0.03 1.27 1.12 80 1018.8
20260506214552 0 164 6.4 9.7 0.05 1.45 1.12 77 1019.0
20260506213102 1 88 1.6 6.4 0.10 1.45 1.12 78 1019.1
20260506211548 2 293 0.0 3.2 0.18 1.45 1.12 83 1019.1
20260506210045 1 39 1.6 9.7 0.23 1.42 1.09 82 1019.2
20260506204549 1 74 0.0 3.2 0.30 1.47 1.07 82 1019.3
20260506203043 0 41 1.6 6.4 0.38 1.45 1.02 84 1019.3
20260506201542 0 30 1.6 8.0 0.41 1.37 0.94 84 1019.6
20260506200048 0 333 6.4 12.9 0.38 1.30 0.86 85 1019.6
20260506194604 0 5 6.4 12.9 0.36 1.30 0.76 84 1019.6
20260506193046 0 343 6.4 12.9 0.28 1.17 0.64 87 1019.6
20260506191552 0 351 6.4 12.9 0.23 1.07 0.53 89 1019.7
20260506190051 0 321 8.0 12.9 0.23 1.02 0.48 91 1019.8
20260506184552 -1 5 9.7 17.7 0.20 0.99 0.41 90 1019.9
20260506183051 -1 342 11.3 16.1 0.18 0.94 0.36 91 1020.1